Weather in Zaraysk

Russia / Moscow Oblast     54°45′25″N   38°52′29″E
temp.,
°C
wind,
m/s
gust,
m/s
humid.,
%
clouds,
%
prec.,
mm/h
press.,
hPa
HPBL,
m
2 march, tue
tue200:00+1w71391100 0.0 1016661
03:00+1w61394100 0.0 1014668
06:00+1w61394100 0.0 1010664
09:00+1w61397100 0.1 1010599
12:00+1wnw612100100 0.1 1008660
15:00+1nw5129799 0.3 1008734
18:00−1nw5128998 0.3 1008429
21:00−1nw5129092 0.3 1010553
3 march, wed
wed300:00−2nw6139298 0.2 1011753
03:00−4nnw6138993 0.2 1013610
06:00−6nw6149078 0.0 1014574
09:00−5nw7148777 0.0 1016703
12:00−2nw611830 0.0 1015843
15:00−1wnw7109117 0.1 1015914
18:00−2wnw51192100 0.1 1014608
21:00−2w5129099 0.3 1014583
4 march, thu
thu400:00−2w51192100 0.1 1012632
03:00−2wsw61389100 0.1 1009443
06:00−1wsw91789100 0.1 1005668
09:00−1wsw91686100 0.1 1004758
12:000w81288100 0.0 1001873
15:000w71290100 0.1 1000923
18:000wsw71490100 0.1 999702
21:00−3n71192100 0.7 1000519
5 march, fri
fri500:00−4nw4989100 0.0 1002264
03:00−8nw489485 0.0 1005155
06:00−9nw339617 0.0 100754
09:00−7nw229410 0.0 100984
12:00−4nw11820 0.0 1010398
15:00−3sw118232 0.0 1011530
18:00−5s1291100 0.1 101021
21:00−7s1292100 0.1 101221
6 march, sat
sat600:00−8nw1191100 0.0 101221
03:00−9nnw239278 0.0 101222
06:00−10nnw34920 0.0 101363
09:00−9nnw47910 0.0 1013263
12:00−6nw578636 0.0 1013764
15:00−6nw578068 0.1 10141047
18:00−8wnw339090 0.1 101470
21:00−10wnw369489 0.2 1015116